Location: Sevilla
(37.3933°N, 5.9839°W)
Time: 04:39:57
(UTC+02:00)

Vanguard 3 - Pass Details

Date: 30 June 2024
Orbit: 508 x 3231 km, 33.4° (Epoch: 15 July)

Event Time Altitude Azimuth Distance (km) Brightness Sun altitude
Rises 07:34:14 0° 227° (SW) 7,178 11.3 4.0°
Reaches altitude 10° 07:39:29 10° 223° (SW) 6,083 11.0 4.9°
Maximum altitude 07:56:41 48° 157° (SSE) 3,094 10.2 8.0°
Drops below altitude 10° 08:08:04 10° 88° (E) 4,156 12.5 10.1°
Sets 08:10:54 0° 82° (E) 4,831 12.9 10.7°
